Simultaneous Nadir Overpasses (SNOs) Predictions

Prediction of SNOs between GOES-17 and METOP-C Satellite Orbit:

Table of predicted SNOs for the next 14.0 days since TLE Epoch: 5/16/2025
Index Date Time (GOES-17) GOES-17 Lat,Lon METOP-C Lat,Lon Distance(km) Time Diff (sec)
1 05/18/2025 04:35:28 -0.02,-104.37 -0.33,-105.81 162.93 80
2 05/19/2025 04:12:10 -0.02,-104.37 0.79,-100.81 405.76 80
3 05/20/2025 16:31:03 0.02,-104.44 0.22,-105.38 107.01 80
4 05/21/2025 16:13:05 0.01,-104.44 -0.90,-100.39 461.96 80
5 05/23/2025 04:32:05 -0.01,-104.37 -0.18,-104.97 69.32 80
6 05/24/2025 04:08:46 -0.01,-104.37 0.95, -99.98 499.54 80
7 05/25/2025 16:27:40 0.01,-104.43 0.05,-104.55 13.55 80
8 05/28/2025 04:26:03 0.00,-104.36 0.07,-104.16 23.48 80
9 05/29/2025 16:44:55 -0.01,-104.42 0.98,-108.71 490.18 80
10 05/30/2025 16:26:56 -0.01,-104.42 -0.15,-103.72 78.71 80
